Location: York
(31.8935°S, 116.7682°E)
Time: 16:18:15
(UTC+08:00)

Hubble Space Telescope - Pass Details

Date: 21 May 2021
Orbit: 535 x 539 km, 28.5° (Epoch: 17 June)

Event Time Altitude Azimuth Distance (km) Brightness Sun altitude
Rises 18:33:52 0° 277° (W) 2,689 6.2 -15.5°
Reaches altitude 10° 18:36:10 10° 282° (WNW) 1,798 4.8 -16.0°
Maximum altitude 18:40:14 53° 359° (N) 666 1.3 -16.8°
Enters shadow 18:42:08 28° 63° (ENE) 1,028 1.8 -17.2°
